Regional Weather Roundup
Issued by NWS Binghamton, NY

Home | Current Version | Previous Version | Text Only | Print | Product List | Glossary On
Versions: 1 2 3 4 5 6 7 8 9 10 11 12 13 14 15 16 17 18 19 20 21 22 23 24 25 26 27 28 29 30 31 32 33 34 35 36 37 38 39 40 41 42 43 44 45 46 47 48 49 50
000
ASUS41 KBGM 251210
RWRBGM

REGIONAL WEATHER ROUNDUP
NATIONAL WEATHER SERVICE BINGHAMTON NY
800 AM EDT MON MAR 25 2019

Note: "fair" indicates few or no clouds below 12,000 feet with no
significant weather and/or obstructions to visibility.

* = Station(s) that does not report precipitation, such as rain,
snow, etc, also no thunder or fog.

NYZ009-015>018-022>025-036-037-044>046-055>057-062-251300
...Central New York...

CITY           SKY/WX    TMP DP  RH WIND       PRES   REMARKS
Binghamton     CLOUDY    27  20  75 N14       30.08R WCI  16
Cortland       CLOUDY    28   9  43 NE7       30.14R WCI  21
Dansville      CLOUDY    31  12  45 N5        30.19R WCI  26
Elmira         CLOUDY    30  16  56 NE12      30.16R WCI  20
Seneca Falls   SUNNY     28  14  54 N5        30.21S WCI  23
Ithaca         CLOUDY    28   9  44 N9        30.16R WCI  19
Hamilton       MOSUNNY   27   7  43 N9        30.14S WCI  17
Monticello     NOT AVBL
Penn Yan       CLOUDY    29  12  49 VRB5      30.18R WCI  24
Rome           FAIR      26  11  52 N7        30.20R WCI  18
Sidney         CLOUDY    30  25  80 N6        30.13R WCI  24
Syracuse       FAIR      26  12  55 NW7       30.22R WCI  18
$$

PAZ038>040-043-044-047-048-072-251300
...Northeast Pennsylvania...

CITY           SKY/WX    TMP DP  RH WIND       PRES   REMARKS
Hazleton       PTSUNNY   39  27  60 N8        30.05R WCI  34
Scranton       CLOUDY    38  28  67 NE8       30.07R WCI  32
$$
&&
KEY
WCI = Wind Chill Index
VSB = Visibility
HX  = Heat Index
$$



USA.gov is the U.S. government's official web portal to all federal, state and local government web resources and services.